"STATION_ID","USDM_WEEK","SMVWC_5_CM_MEAN","SMANOM_5_CM_MEAN","SMPERC_5_CM_30COUNTS","SMPERC_5_CM_70COUNTS","SMVWC_10_CM_MEAN","SMANOM_10_CM_MEAN","SMPERC_10_CM_30COUNTS","SMPERC_10_CM_70COUNTS","SMVWC_20_CM_MEAN","SMANOM_20_CM_MEAN","SMPERC_20_CM_30COUNTS","SMPERC_20_CM_70COUNTS","SMVWC_50_CM_MEAN","SMANOM_50_CM_MEAN","SMPERC_50_CM_30COUNTS","SMPERC_50_CM_70COUNTS","SMVWC_100_CM_MEAN","SMANOM_100_CM_MEAN","SMPERC_100_CM_30COUNTS","SMPERC_100_CM_70COUNTS","SMVWC_TOP_MEAN","SMANOM_TOP_MEAN","SMPERC_TOP_30COUNTS","SMPERC_TOP_70COUNTS","SMVWC_COLUMN_MEAN","SMANOM_COLUMN_MEAN","SMPERC_COLUMN_30COUNTS","SMPERC_COLUMN_70COUNTS"
1030,20090505,0.03,-0.57,1,0,0.054,-0.529,1,0,0.088,-0.253,0.007,0,0.17,-0.003,0.007,0,0.361,-1.37,1,0,0.042,-0.544,1,0,0.141,-0.411,1,0
1030,20090512,0.029,-0.572,1,0,0.053,-0.528,0.863,0,0.087,-0.229,0.226,0,0.163,-0.036,0,0,0.361,-1.354,1,0,0.041,-0.542,1,0,0.139,-0.401,0.982,0
1030,20090519,0.046,-0.37,0.619,0,0.084,-0.087,0,0.054,0.107,0.198,0,0.339,0.163,-0.003,0,0,0.364,-0.847,1,0,0.065,-0.233,0.28,0,0.153,-0.166,0.44,0
1030,20090526,0.071,-0.094,0,0.006,0.103,0.169,0,0.024,0.108,0.234,0,0.155,0.168,0.091,0,0,0.369,-0.489,0.893,0,0.087,0.025,0,0.012,0.164,0.032,0,0
1030,20090602,0.066,-0.226,0.363,0,0.098,0.028,0,0,0.099,0.022,0,0.018,0.162,0.022,0,0,0.371,-0.241,0,0,0.082,-0.099,0.024,0,0.159,-0.031,0,0
1030,20090609,0.064,-0.217,0.363,0.018,0.089,-0.071,0.274,0.202,0.102,0.11,0.155,0.315,0.163,0.098,0,0.054,0.373,-0.053,0,0,0.077,-0.15,0.381,0.06,0.159,0.022,0,0.149
1030,20090616,0.077,0.077,0,0.214,0.107,0.277,0,0.452,0.11,0.322,0,0.458,0.171,0.384,0,0.464,0.377,-0.005,0,0,0.092,0.189,0,0.298,0.168,0.284,0,0.446
1030,20090623,0.075,0.069,0.065,0.214,0.1,0.204,0,0.429,0.104,0.245,0,0.351,0.174,0.531,0,0.762,0.377,0.005,0,0,0.088,0.152,0,0.268,0.166,0.29,0,0.452
1030,20090630,0.045,-0.375,0.625,0.006,0.061,-0.311,0.381,0,0.085,-0.058,0.048,0.161,0.163,0.319,0,0.012,0.376,0.029,0,0,0.053,-0.326,0.488,0,0.146,-0.024,0,0.095
1030,20090707,0.046,-0.328,0.524,0.006,0.057,-0.33,0.423,0,0.075,-0.172,0.321,0.232,0.154,0.165,0,0.006,0.377,0.172,0,0.935,0.051,-0.317,0.446,0,0.142,-0.034,0,0.048
1030,20090714,0.066,-0.081,0.262,0.024,0.086,0.066,0,0.042,0.101,0.251,0,0.482,0.163,0.418,0,0.643,0.378,0.322,0,1,0.076,0.003,0.012,0.024,0.159,0.251,0,0.446
1030,20090721,0.053,-0.348,0.53,0,0.05,-0.498,0.577,0,0.064,-0.401,0.333,0,0.152,0.004,0,0,0.354,0.263,0,1,0.052,-0.429,0.571,0,0.135,-0.106,0,0
1030,20090728,0.031,-0.731,1,0,0.029,-0.815,1,0,0.026,-1.021,1,0,0.132,-0.579,0.815,0,0.28,-0.179,0,0.006,0.03,-0.817,1,0,0.1,-0.623,0.631,0
1030,20090804,0.05,-0.575,0.756,0,0.042,-0.684,0.756,0,0.056,-0.578,0.524,0.054,0.114,-0.894,0.952,0,0.189,-0.732,0.726,0,0.046,-0.699,0.786,0,0.09,-0.788,0.851,0
1030,20090811,0.062,-0.478,0.732,0.006,0.079,-0.298,0.262,0.006,0.095,-0.082,0.143,0.036,0.16,-0.053,0,0,0.193,-0.753,0.423,0,0.071,-0.432,0.655,0.006,0.118,-0.425,0.387,0
1030,20090818,0.055,-0.54,0.851,0,0.062,-0.52,0.982,0,0.079,-0.376,0.702,0,0.147,-0.311,0.685,0,0.19,-0.747,0.048,0,0.059,-0.559,0.988,0,0.107,-0.608,0.994,0
1030,20090825,0.056,-0.458,0.649,0.012,0.066,-0.421,0.452,0,0.081,-0.299,0.452,0.036,0.153,-0.237,0.47,0,0.172,-0.849,1,0,0.062,-0.455,0.571,0,0.106,-0.592,0.827,0
1030,20090901,0.049,-0.412,0.857,0,0.066,-0.332,0.702,0,0.083,-0.202,0.429,0.048,0.152,-0.156,0.851,0,0.166,-0.848,1,0,0.058,-0.387,0.857,0,0.103,-0.457,0.863,0
1030,20090908,0.065,-0.189,0.327,0,0.085,-0.082,0,0,0.097,0.021,0,0.018,0.16,-0.048,0.006,0,0.158,-0.853,1,0,0.075,-0.137,0.143,0,0.113,-0.284,0.637,0
1030,20090915,0.045,-0.337,0.583,0,0.06,-0.357,0.512,0,0.071,-0.278,0.369,0,0.147,-0.123,0.655,0,0.149,-0.839,1,0,0.053,-0.34,0.542,0,0.094,-0.402,1,0
1030,20090922,0.03,-0.525,1,0,0.031,-0.722,1,0,0.033,-0.66,1,0,0.136,-0.188,1,0,0.139,-0.86,1,0,0.031,-0.605,1,0,0.074,-0.549,1,0
1030,20090929,0.066,-0.385,0.577,0,0.079,-0.373,0.345,0.006,0.096,-0.2,0.125,0.012,0.156,-0.162,0.286,0,0.14,-0.858,0.988,0,0.073,-0.367,0.488,0.006,0.107,-0.289,0.304,0
1030,20091006,0.051,-0.682,0.964,0,0.07,-0.629,0.964,0,0.085,-0.469,0.881,0,0.151,-0.228,1,0,0.147,-0.82,0.857,0,0.061,-0.645,0.97,0,0.101,-0.577,0.923,0
1030,20091013,0.07,-0.599,0.899,0,0.086,-0.516,0.899,0,0.1,-0.318,0.619,0,0.154,-0.191,0.792,0,0.138,-0.871,1,0,0.078,-0.564,0.899,0,0.11,-0.531,0.899,0
1030,20091020,0.093,-0.329,0.405,0,0.097,-0.359,0.536,0,0.111,-0.082,0.036,0,0.165,-0.086,0,0,0.137,-0.882,0.738,0,0.095,-0.343,0.458,0,0.121,-0.466,0.03,0
1030,20091027,0.078,-0.551,0.994,0,0.088,-0.554,1,0,0.095,-0.414,0.988,0,0.155,-0.214,0.643,0,0.138,-0.876,0.274,0,0.083,-0.537,1,0,0.111,-0.585,0.845,0
1030,20091103,0.105,-0.063,0.101,0.06,0.099,-0.293,0.244,0.03,0.106,-0.031,0.101,0.107,0.163,-0.078,0.131,0,0.137,-0.866,0.06,0,0.102,-0.139,0.101,0.036,0.122,-0.482,0.101,0
1030,20091110,0.08,-0.568,0.75,0,0.086,-0.65,1,0,0.092,-0.471,0.774,0,0.154,-0.282,0.458,0,0.136,-0.86,0.506,0,0.083,-0.574,0.821,0,0.11,-0.602,0.357,0
1030,20091117,0.124,0.389,0.006,0.399,0.114,0.205,0.018,0.25,0.111,0.295,0.012,0.31,0.163,0.12,0.089,0.167,0.25,-0.289,0.19,0,0.119,0.309,0.006,0.351,0.153,-0.038,0.006,0.018
1030,20091124,0.117,0.25,0,0.31,0.106,-0.03,0.054,0.077,0.105,0.083,0.071,0.137,0.159,0.004,0,0,0.291,-0.047,0,0,0.112,0.142,0,0.167,0.155,0.02,0,0
1030,20091201,0.116,0.143,0,0.173,0.104,-0.137,0.107,0,0.103,-0.016,0,0,0.158,-0.07,0,0,0.291,-0.042,0,0,0.11,0.021,0,0.083,0.154,0.011,0,0
1030,20091208,0.136,0.482,0,0.452,0.125,0.35,0.139,0.349,0.123,0.496,0.054,0.512,0.181,0.527,0.012,0.639,0.33,0.106,0,0,0.13,0.412,0.066,0.386,0.179,0.361,0,0.518
1030,20091215,0.137,0.332,0,0.262,0.127,0.22,0,0.173,0.128,0.352,0,0.22,0.204,0.594,0,0.411,0.349,0.178,0,0,0.132,0.275,0,0.202,0.189,0.423,0,0.452
1030,20091222,0.288,2.592,0,0.587,0.265,2.677,0,0.545,0.253,2.083,0,0.545,0.288,0.969,0,0.629,0.358,0.214,0,0.03,0.277,2.735,0,0.557,0.29,1.334,0,0.683
1030,20091229,0.341,3.095,0,1,0.356,3.456,0,1,0.367,2.719,0,1,0.345,1.123,0,1,0.366,0.3,0,0.256,0.349,3.367,0,1,0.355,2.019,0,1
1030,20100105,0.255,1.734,0,1,0.315,2.404,0,1,0.363,1.905,0,1,0.352,1.012,0,1,0.37,0.265,0,0,0.285,2.126,0,1,0.331,1.708,0,1
1030,20100112,0.18,0.678,0,0.899,0.225,1.168,0,1,0.323,1.518,0,1,0.353,0.921,0,1,0.375,0.27,0,0.048,0.203,0.973,0,1,0.291,1.06,0,1
1030,20100119,0.19,0.788,0,0.345,0.221,1.194,0,1,0.273,1.313,0,1,0.346,0.862,0,1,0.378,0.351,0,0.905,0.206,0.996,0,0.679,0.282,0.875,0,1
1030,20100126,0.293,2.248,0,1,0.317,2.564,0,1,0.318,1.858,0,1,0.353,0.87,0,1,0.378,0.185,0,0.315,0.305,2.417,0,1,0.332,1.206,0,1
1030,20100202,0.348,2.909,0,1,0.342,2.95,0,1,0.333,2.099,0,1,0.357,0.88,0,1,0.38,0.113,0,0.094,0.345,2.942,0,1,0.352,1.297,0,1
1030,20100209,0.392,3.701,0,1,0.366,3.678,0,1,0.342,2.778,0,1,0.36,0.89,0,1,0.383,0.098,0,0.107,0.38,3.719,0,1,0.369,1.368,0,1
1030,20100216,0.392,4.246,0,1,0.369,4.155,0,1,0.348,3.57,0,1,0.361,1.052,0,1,0.384,0.066,0,0,0.381,4.22,0,1,0.371,1.406,0,1
1030,20100223,0.269,2.14,0,1,0.301,2.846,0,1,0.34,3.624,0,1,0.362,1.076,0,1,0.385,0.065,0,0,0.285,2.467,0,1,0.331,1.125,0,1
1030,20100302,0.203,1.053,0,1,0.237,1.64,0,1,0.316,2.778,0,1,0.36,1.057,0,1,0.384,0.076,0,0,0.22,1.313,0,1,0.3,0.999,0,1
1030,20100309,0.203,1.111,0,1,0.233,1.798,0,1,0.305,2.79,0,1,0.36,1.083,0,1,0.385,0.091,0,0,0.218,1.408,0,1,0.297,1.088,0,1
1030,20100316,0.288,2.156,0,1,0.293,2.67,0,1,0.299,2.65,0,1,0.358,1.074,0,1,0.385,0.093,0,0,0.29,2.411,0,1,0.324,1.374,0,1
1030,20100323,0.197,0.989,0,1,0.226,1.537,0,1,0.288,2.36,0,1,0.359,1.036,0,1,0.384,0.092,0,0,0.212,1.243,0,1,0.291,1.074,0,1
1030,20100330,0.177,0.735,0,1,0.185,0.943,0,1,0.222,1.59,0,1,0.333,0.927,0,1,0.383,0.091,0,0.006,0.181,0.825,0,1,0.26,0.735,0,1
1030,20100406,0.181,0.765,0,1,0.198,1.075,0,1,0.253,2.128,0,1,0.343,0.999,0,1,0.382,0.057,0,0,0.19,0.894,0,1,0.272,0.826,0,1
1030,20100413,0.175,0.655,0,0.917,0.183,0.817,0,0.952,0.23,1.643,0,1,0.335,0.851,0,0.935,0.381,0.038,0,0,0.179,0.723,0,0.935,0.261,0.654,0,0.69
1030,20100420,0.146,0.391,0,0.607,0.149,0.421,0,0.738,0.168,0.778,0,1,0.319,0.823,0,1,0.38,0.022,0,0,0.148,0.405,0,0.744,0.232,0.398,0,0.44
1030,20100427,0.131,0.334,0,0.286,0.127,0.199,0,0.03,0.131,0.285,0,0.054,0.289,0.726,0,0.988,0.379,-0.01,0,0,0.129,0.27,0,0.149,0.211,0.252,0,0
1030,20100504,0.1,0.142,0,0,0.104,0.046,0,0,0.111,0.088,0,0,0.243,0.487,0,0.012,0.378,-0.07,0,0,0.102,0.096,0,0,0.187,0.092,0,0
1030,20100511,0.11,0.346,0,0.268,0.12,0.325,0,0.286,0.123,0.386,0,0.387,0.234,0.534,0,0,0.377,-0.137,0.006,0,0.116,0.336,0,0.298,0.193,0.279,0,0.018
1030,20100518,0.062,-0.178,0.19,0.018,0.075,-0.212,0.179,0.083,0.089,-0.132,0.03,0,0.203,0.407,0,0.006,0.375,-0.165,0.161,0,0.069,-0.194,0.161,0.077,0.161,-0.061,0,0
1030,20100525,0.074,-0.034,0.202,0.054,0.082,-0.137,0.179,0.024,0.075,-0.384,0.482,0,0.181,0.257,0,0,0.374,-0.198,0.054,0,0.078,-0.096,0.238,0,0.157,-0.072,0.024,0
1030,20100601,0.088,0.11,0.149,0.232,0.096,0.004,0.214,0.232,0.098,0.002,0.161,0.185,0.175,0.22,0,0,0.376,-0.065,0,0,0.092,0.059,0.196,0.232,0.167,0.093,0,0.06
1030,20100608,0.126,0.761,0.012,0.875,0.14,0.7,0.012,0.982,0.148,1.086,0.024,0.976,0.261,2.144,0,0.976,0.38,0.047,0,0.571,0.133,0.732,0.012,0.881,0.211,0.958,0,0.982
1030,20100615,0.069,-0.063,0.06,0,0.086,-0.035,0.054,0.071,0.099,0.123,0,0.244,0.213,1.434,0,1,0.381,0.046,0,0.667,0.078,-0.042,0.06,0.006,0.17,0.287,0,0.506
1030,20100622,0.051,-0.302,0.548,0.03,0.056,-0.411,0.631,0.101,0.071,-0.348,0.452,0.119,0.178,0.645,0,0.97,0.381,0.031,0,0,0.054,-0.352,0.595,0.065,0.147,-0.067,0.012,0.119
1030,20100629,0.067,-0.013,0.226,0.196,0.08,-0.053,0.185,0.202,0.086,-0.041,0.113,0.196,0.169,0.477,0,0.661,0.381,0.052,0,0.292,0.074,-0.017,0.179,0.208,0.157,0.172,0,0.304
1030,20100706,0.093,0.509,0,0.595,0.101,0.332,0,0.518,0.1,0.264,0,0.446,0.162,0.439,0,0.768,0.379,0.152,0,1,0.098,0.438,0,0.571,0.167,0.443,0,0.786
1030,20100713,0.08,0.157,0.089,0.256,0.084,0.034,0.19,0.274,0.081,-0.084,0.107,0.315,0.163,0.412,0,0.339,0.346,0.123,0,0.56,0.082,0.1,0.149,0.25,0.151,0.111,0,0.351
1030,20100720,0.103,0.399,0,0.363,0.109,0.312,0,0.321,0.107,0.286,0,0.339,0.179,0.785,0,1,0.334,0.136,0,0.577,0.106,0.36,0,0.345,0.166,0.397,0,0.673
1030,20100727,0.089,0.069,0.012,0.196,0.089,-0.018,0,0.077,0.088,-0.085,0,0,0.164,0.269,0,0.208,0.32,0.051,0,0.196,0.089,0.007,0.018,0.161,0.15,0.12,0,0.19
1030,20100803,0.114,0.264,0,0.179,0.11,0.196,0,0.137,0.104,0.127,0,0.131,0.173,0.289,0,0.31,0.309,-0.072,0,0,0.112,0.2,0,0.155,0.162,0.209,0,0.244
1030,20100810,0.099,-0.03,0.167,0.089,0.101,-0.002,0.125,0.137,0.102,0.034,0,0.143,0.176,0.189,0,0.012,0.344,0.041,0,0,0.101,-0.049,0.19,0.101,0.164,0.163,0,0.185
1030,20100817,0.102,-0.026,0.006,0.03,0.104,-0.002,0.012,0.048,0.103,0.03,0.018,0.095,0.176,0.136,0,0,0.353,0.054,0,0,0.103,-0.042,0.077,0.03,0.167,0.153,0,0.095
1030,20100824,0.105,0.077,0,0.095,0.101,0.023,0,0.095,0.1,-0.002,0,0.083,0.174,0.096,0,0.155,0.354,0.041,0,0,0.103,0.033,0,0.089,0.167,0.17,0,0.196
1030,20100831,0.096,0.119,0,0,0.097,0.057,0,0,0.097,0.023,0,0,0.173,0.101,0,0,0.359,0.09,0,0,0.097,0.09,0,0,0.164,0.226,0,0.089
1030,20100907,0.067,-0.17,0,0,0.072,-0.224,0,0,0.075,-0.271,0.375,0,0.162,-0.028,0,0,0.336,0.009,0,0,0.07,-0.204,0,0,0.143,0.034,0,0
1030,20100914,0.066,-0.132,0,0,0.075,-0.19,0,0,0.075,-0.237,0.363,0,0.152,-0.089,0.012,0,0.239,-0.423,0,0,0.071,-0.148,0,0,0.121,-0.134,0.006,0
1030,20100921,0.066,-0.19,0.006,0,0.073,-0.301,0.298,0,0.074,-0.291,0.363,0,0.148,-0.111,0,0,0.173,-0.707,0.31,0,0.069,-0.222,0,0,0.107,-0.247,0.185,0
1030,20100928,0.076,-0.271,0.69,0.054,0.086,-0.273,0.774,0.071,0.082,-0.306,0.78,0.054,0.15,-0.176,0.768,0,0.154,-0.796,0.893,0,0.081,-0.262,0.696,0.065,0.11,-0.23,0.708,0.006
1030,20101005,0.161,0.413,0,0.321,0.178,0.716,0,0.619,0.193,0.927,0,0.798,0.281,0.566,0,0.762,0.32,-0.08,0,0,0.17,0.524,0,0.435,0.227,0.443,0,0.446
1030,20101012,0.121,0.003,0,0,0.128,0.111,0,0,0.132,0.195,0,0.095,0.261,0.532,0,0.494,0.345,0.002,0,0,0.125,0.036,0,0,0.197,0.2,0,0
1030,20101019,0.103,-0.199,0,0,0.107,-0.179,0,0,0.106,-0.19,0.065,0,0.201,0.206,0,0,0.352,0.007,0,0,0.105,-0.195,0,0,0.174,0.001,0,0
1030,20101026,0.097,-0.233,0.601,0.179,0.104,-0.194,0.637,0.185,0.103,-0.169,0.81,0.179,0.179,0.112,0,0.077,0.359,0.024,0,0,0.101,-0.212,0.637,0.185,0.168,0.001,0,0.119
1030,20101102,0.106,-0.047,0,0.042,0.109,-0.045,0,0.077,0.106,-0.049,0,0.071,0.184,0.398,0,0.798,0.368,0.043,0,0,0.108,-0.028,0,0.054,0.175,0.118,0,0
1030,20101109,0.108,0.011,0,0.173,0.111,0.028,0,0.196,0.105,-0.037,0.095,0.125,0.173,0.299,0,0.119,0.373,0.045,0,0,0.11,0.033,0,0.196,0.174,0.179,0,0.149
1030,20101116,0.089,-0.399,0.554,0,0.096,-0.36,0.512,0,0.094,-0.383,0.714,0,0.167,0.233,0,0,0.376,0.154,0,0.667,0.092,-0.354,0.494,0,0.164,0.11,0,0
1030,20101123,0.074,-0.711,1,0,0.083,-0.686,1,0,0.086,-0.624,1,0,0.162,0.094,0,0,0.372,0.256,0,0.726,0.079,-0.685,1,0,0.155,0.017,0,0
1030,20101130,0.072,-0.807,1,0,0.075,-0.949,1,0,0.08,-0.78,1,0,0.158,-0.057,0,0,0.341,0.14,0,0,0.074,-0.859,1,0,0.145,-0.126,0,0
1030,20101207,0.081,-0.666,1,0,0.079,-0.893,1,0,0.079,-0.782,1,0,0.155,-0.146,0.25,0,0.285,-0.061,0,0,0.08,-0.74,1,0,0.136,-0.228,0,0
1030,20101214,0.094,-0.474,0.577,0.036,0.099,-0.461,0.565,0.065,0.097,-0.345,0.589,0.03,0.154,-0.187,0.869,0,0.217,-0.311,0,0,0.097,-0.45,0.565,0.048,0.132,-0.242,0,0
1030,20101221,0.12,-0.067,0.399,0.101,0.123,0.032,0.101,0.107,0.117,0,0.101,0.012,0.172,-0.038,0,0,0.193,-0.402,0,0,0.122,-0.011,0.226,0.107,0.145,-0.223,0,0
1030,20101228,0.119,-0.102,0.476,0.042,0.122,-0.056,0.53,0.042,0.114,-0.085,0.607,0,0.176,-0.012,0,0,0.206,-0.295,0,0,0.121,-0.08,0.488,0.048,0.147,-0.28,0.042,0
1030,20110104,0.112,-0.199,0.464,0,0.114,-0.155,0.714,0,0.107,-0.108,0.673,0,0.173,-0.045,0,0,0.229,-0.291,0,0,0.113,-0.179,0.548,0,0.147,-0.292,0,0
1030,20110111,0.127,-0.003,0.185,0.054,0.124,-0.033,0.202,0,0.111,-0.067,0.28,0,0.17,-0.076,0.012,0,0.224,-0.376,0.03,0,0.126,-0.015,0.19,0,0.151,-0.241,0.03,0
1030,20110118,0.117,-0.166,0.422,0,0.118,-0.136,0.398,0,0.11,-0.094,0.385,0,0.172,-0.052,0,0,0.226,-0.319,0.012,0,0.118,-0.146,0.379,0,0.149,-0.217,0,0
1030,20110125,0.12,-0.16,0.435,0.012,0.118,-0.16,0.399,0,0.108,-0.147,0.667,0,0.168,-0.085,0.006,0,0.222,-0.449,0,0,0.119,-0.154,0.393,0,0.147,-0.257,0,0
1030,20110201,0.125,-0.156,0.5,0.048,0.124,-0.127,0.363,0.042,0.114,-0.125,0.571,0,0.174,-0.095,0.012,0,0.228,-0.541,0,0,0.125,-0.141,0.476,0.036,0.153,-0.238,0,0
1030,20110208,0.149,0.171,0.137,0.202,0.144,0.169,0.137,0.19,0.124,-0.014,0.238,0.018,0.182,-0.076,0.22,0,0.272,-0.369,0,0,0.147,0.175,0.137,0.202,0.174,-0.065,0,0
1030,20110215,0.132,-0.039,0.036,0.03,0.128,-0.099,0.107,0,0.116,-0.144,0.304,0,0.186,-0.037,0,0,0.338,-0.156,0,0,0.13,-0.065,0.048,0.012,0.18,-0.018,0,0
1030,20110222,0.102,-0.437,1,0,0.109,-0.405,1,0,0.104,-0.311,1,0,0.179,-0.072,0,0,0.344,-0.223,0,0,0.106,-0.416,1,0,0.167,-0.108,0.125,0
1030,20110301,0.102,-0.325,0.452,0,0.106,-0.337,0.554,0,0.1,-0.285,0.786,0,0.172,-0.083,0.292,0,0.348,-0.379,0.018,0,0.104,-0.32,0.452,0,0.166,-0.095,0.435,0
1030,20110308,0.1,-0.229,0.458,0,0.102,-0.305,0.756,0,0.097,-0.237,0.863,0,0.168,-0.069,0,0,0.352,-0.515,0.298,0,0.102,-0.256,0.56,0,0.164,-0.094,0,0
1030,20110315,0.104,-0.109,0.244,0,0.11,-0.123,0.256,0.024,0.103,-0.126,0.28,0,0.167,-0.056,0,0,0.354,-0.539,0.274,0,0.108,-0.109,0.25,0,0.168,-0.055,0.155,0
1030,20110322,0.064,-0.522,0.982,0,0.079,-0.559,0.97,0,0.087,-0.334,0.976,0,0.164,-0.084,0.47,0,0.356,-0.559,0.012,0,0.072,-0.535,0.976,0,0.15,-0.263,0.81,0
1030,20110329,0.061,-0.56,0.726,0.006,0.07,-0.705,0.726,0.054,0.082,-0.464,0.69,0.012,0.161,-0.109,0.75,0,0.353,-0.703,0.958,0,0.066,-0.623,0.726,0.024,0.145,-0.479,0.738,0
1030,20110405,0.104,-0.086,0.077,0.03,0.117,-0.038,0,0.065,0.113,-0.097,0.137,0.042,0.184,0.008,0,0,0.36,-0.543,0.208,0,0.111,-0.064,0.006,0.054,0.176,-0.291,0.476,0
1030,20110412,0.083,-0.337,0.363,0,0.092,-0.386,0.571,0,0.094,-0.418,0.893,0,0.175,-0.159,0.399,0,0.367,-0.56,0.44,0,0.088,-0.357,0.554,0,0.162,-0.493,0.81,0
1030,20110419,0.053,-0.622,1,0,0.062,-0.761,1,0,0.078,-0.66,1,0,0.166,-0.179,0.988,0,0.369,-0.58,0.994,0,0.058,-0.683,1,0,0.146,-0.66,1,0
1030,20110426,0.065,-0.38,0.458,0.018,0.077,-0.428,0.458,0.048,0.084,-0.492,0.464,0.042,0.171,-0.075,0.476,0,0.373,-0.418,0.786,0,0.072,-0.402,0.458,0.03,0.154,-0.445,0.464,0
1030,20110503,0.081,-0.071,0.054,0.03,0.094,-0.089,0.042,0.012,0.098,-0.118,0.048,0,0.178,0.032,0,0,0.376,-0.229,0.435,0,0.087,-0.08,0,0.012,0.165,-0.167,0.101,0
1030,20110510,0.055,-0.274,0.482,0,0.062,-0.415,0.47,0,0.071,-0.515,1,0,0.165,-0.025,0,0,0.377,-0.094,0.012,0,0.059,-0.332,0.458,0,0.146,-0.315,0.565,0
1030,20110517,0.087,0.139,0,0.042,0.094,0.041,0.042,0.048,0.093,-0.069,0.125,0.012,0.163,-0.015,0,0,0.378,0.002,0,0,0.091,0.088,0,0.036,0.163,-0.034,0.107,0
1030,20110524,0.051,-0.347,0.53,0,0.063,-0.401,0.435,0,0.07,-0.474,0.536,0,0.159,-0.034,0,0,0.374,-0.188,0.232,0,0.057,-0.384,0.506,0,0.143,-0.296,0.411,0
1030,20110531,0.029,-0.767,1,0,0.038,-0.91,1,0,0.041,-1.135,1,0,0.147,-0.212,0.417,0,0.338,-1.533,1,0,0.034,-0.843,1,0,0.118,-0.746,1,0
1030,20110607,0.02,-0.95,1,0,0.03,-0.988,1,0,0.029,-1.448,1,0,0.136,-0.484,1,0,0.239,-2.098,1,0,0.025,-0.984,1,0,0.091,-1.209,1,0
1030,20110614,0.018,-0.902,1,0,0.027,-0.911,1,0,0.023,-1.42,1,0,0.128,-0.752,1,0,0.172,-2.507,1,0,0.023,-0.917,1,0,0.074,-1.477,1,0
1030,20110621,0.019,-0.82,1,0,0.026,-0.836,1,0,0.022,-1.263,1,0,0.123,-0.879,1,0,0.144,-1.663,1,0,0.023,-0.823,1,0,0.067,-1.622,1,0
1030,20110628,0.028,-0.659,1,0,0.05,-0.487,0.381,0,0.042,-0.818,0.857,0,0.119,-1.004,1,0,0.129,-1.539,1,0,0.039,-0.553,0.577,0,0.074,-1.493,1,0
1030,20110705,0.02,-0.766,1,0,0.035,-0.655,0.982,0,0.032,-0.948,1,0,0.12,-0.962,1,0,0.118,-1.437,1,0,0.028,-0.702,1,0,0.065,-1.505,1,0
1030,20110712,0.042,-0.436,0.423,0,0.067,-0.204,0.417,0.161,0.069,-0.282,0.423,0.238,0.124,-0.84,0.798,0,0.108,-1.265,1,0,0.054,-0.306,0.417,0.024,0.082,-1.053,1,0
1030,20110719,0.055,-0.312,0.583,0.018,0.083,-0.04,0.071,0.089,0.092,0.048,0,0.137,0.16,0.231,0,0.345,0.119,-1.142,1,0,0.069,-0.169,0.173,0.042,0.101,-0.663,0.863,0.006
1030,20110726,0.028,-0.751,0.952,0,0.034,-0.741,0.952,0.048,0.046,-0.714,0.851,0.048,0.149,-0.123,0.137,0.036,0.113,-1.103,1,0,0.031,-0.771,0.952,0.03,0.074,-1.007,0.952,0
1030,20110802,0.059,-0.421,0.613,0.012,0.079,-0.185,0.387,0.119,0.092,-0.044,0.125,0.208,0.17,0.269,0,0.357,0.14,-0.985,1,0,0.07,-0.356,0.524,0.042,0.108,-0.526,0.619,0
1030,20110809,0.03,-0.853,1,0,0.025,-0.961,1,0,0.033,-1.025,1,0,0.146,-0.24,0.256,0,0.131,-1.077,1,0,0.028,-0.976,1,0,0.073,-0.976,1,0
1030,20110816,0.045,-0.679,0.946,0,0.053,-0.662,0.565,0.006,0.049,-0.872,0.685,0,0.124,-0.621,1,0,0.12,-1.098,1,0,0.049,-0.707,0.768,0,0.078,-0.957,1,0
1030,20110823,0.038,-0.699,1,0,0.044,-0.741,0.97,0,0.05,-0.818,1,0,0.122,-0.766,1,0,0.114,-1.137,1,0,0.041,-0.738,1,0,0.073,-1.032,1,0
1030,20110830,0.076,-0.129,0.119,0.042,0.1,0.076,0.024,0.131,0.085,-0.176,0.446,0.125,0.147,-0.319,0.494,0,0.114,-1.114,1,0,0.088,-0.034,0.03,0.083,0.104,-0.488,0.726,0
1030,20110906,0.042,-0.46,0.887,0,0.055,-0.42,0.696,0,0.07,-0.351,0.631,0,0.156,-0.089,0.399,0,0.116,-1.068,1,0,0.049,-0.463,0.833,0,0.087,-0.581,1,0
1030,20110913,0.026,-0.537,1,0,0.029,-0.661,1,0,0.037,-0.624,1,0,0.142,-0.161,1,0,0.109,-1.046,1,0,0.028,-0.618,1,0,0.069,-0.673,1,0
1030,20110920,0.021,-0.587,1,0,0.02,-0.813,1,0,0.024,-0.749,1,0,0.129,-0.228,1,0,0.104,-1.02,1,0,0.021,-0.689,1,0,0.06,-0.71,1,0
1030,20110927,0.069,-0.318,0.31,0,0.083,-0.295,0.31,0.012,0.076,-0.342,0.345,0,0.135,-0.253,1,0,0.101,-1.029,1,0,0.076,-0.295,0.31,0.006,0.093,-0.363,0.321,0
1030,20111004,0.074,-0.419,0.726,0,0.094,-0.302,0.411,0,0.095,-0.317,0.56,0,0.16,-0.169,0.321,0,0.102,-1.019,1,0,0.085,-0.357,0.607,0,0.105,-0.511,0.887,0
1030,20111011,0.059,-0.695,0.875,0.018,0.073,-0.682,0.881,0.06,0.077,-0.675,0.917,0,0.151,-0.218,0.976,0,0.102,-1.016,1,0,0.066,-0.686,0.881,0.03,0.092,-0.66,0.899,0
1030,20111018,0.091,-0.364,0.518,0.012,0.108,-0.183,0.262,0.03,0.104,-0.234,0.381,0,0.173,-0.034,0,0,0.11,-0.995,1,0,0.1,-0.289,0.357,0.012,0.117,-0.493,0.381,0
1030,20111025,0.092,-0.345,0.631,0.077,0.105,-0.209,0.476,0.113,0.101,-0.275,0.637,0.083,0.168,-0.047,0,0,0.119,-0.958,1,0,0.099,-0.284,0.577,0.089,0.117,-0.515,0.512,0
1030,20111101,0.054,-0.982,1,0,0.07,-1.012,1,0,0.079,-0.92,1,0,0.153,-0.31,0.857,0,0.112,-0.969,1,0,0.062,-0.953,1,0,0.094,-0.811,1,0
1030,20111108,0.044,-1.282,1,0,0.052,-1.566,1,0,0.067,-1.378,1,0,0.146,-0.538,1,0,0.107,-0.974,1,0,0.048,-1.366,1,0,0.083,-0.93,1,0
1030,20111115,0.038,-1.507,1,0,0.041,-1.99,1,0,0.056,-1.858,1,0,0.142,-0.676,1,0,0.104,-0.903,1,0,0.04,-1.631,1,0,0.076,-1.05,1,0
1030,20111122,0.035,-1.604,1,0,0.036,-2.046,1,0,0.049,-2.096,1,0,0.138,-0.77,1,0,0.101,-0.762,1,0,0.035,-1.769,1,0,0.072,-1.216,1,0
1030,20111129,0.055,-1.171,0.929,0.054,0.057,-1.468,0.929,0.06,0.051,-1.807,0.952,0.048,0.136,-0.789,1,0,0.099,-0.753,1,0,0.056,-1.285,0.929,0.06,0.08,-1.103,0.946,0
1030,20111206,0.088,-0.501,0.809,0,0.104,-0.185,0.469,0.049,0.104,-0.007,0.142,0.093,0.161,0.027,0.068,0,0.099,-0.746,1,0,0.096,-0.351,0.698,0.012,0.111,-0.577,0.957,0
1030,20111213,0.085,-0.646,1,0,0.097,-0.474,1,0,0.095,-0.334,0.923,0,0.158,-0.105,0.167,0,0.101,-0.738,1,0,0.091,-0.552,1,0,0.107,-0.544,1,0
1030,20111220,0.073,-0.848,1,0,0.088,-0.637,1,0,0.088,-0.477,1,0,0.153,-0.209,1,0,0.101,-0.747,1,0,0.081,-0.756,1,0,0.101,-0.69,1,0
1030,20111227,0.078,-0.714,0.964,0,0.087,-0.607,1,0,0.085,-0.443,1,0,0.149,-0.206,1,0,0.099,-0.694,0.97,0,0.083,-0.686,1,0,0.1,-0.8,1,0
1030,20120103,0.09,-0.506,0.97,0,0.098,-0.358,1,0,0.092,-0.236,1,0,0.148,-0.196,1,0,0.099,-0.79,0.994,0,0.094,-0.436,0.994,0,0.105,-0.761,1,0
1030,20120110,0.073,-0.703,1,0,0.088,-0.461,1,0,0.085,-0.261,1,0,0.147,-0.199,1,0,0.099,-0.904,1,0,0.081,-0.595,1,0,0.098,-0.753,1,0
1030,20120117,0.073,-0.728,1,0,0.086,-0.53,1,0,0.082,-0.318,1,0,0.145,-0.194,1,0,0.098,-0.891,1,0,0.08,-0.631,1,0,0.097,-0.645,1,0
1030,20120124,0.097,-0.463,0.923,0,0.1,-0.398,1,0,0.09,-0.308,1,0,0.144,-0.204,1,0,0.097,-0.955,1,0,0.099,-0.422,0.94,0,0.106,-0.584,1,0
1030,20120131,0.1,-0.506,0.917,0,0.106,-0.384,0.857,0,0.097,-0.282,1,0,0.147,-0.235,1,0,0.097,-1.099,1,0,0.103,-0.449,0.893,0,0.109,-0.583,1,0
1030,20120207,0.081,-0.786,1,0,0.094,-0.598,1,0,0.091,-0.422,1,0,0.15,-0.243,1,0,0.097,-1.118,1,0,0.088,-0.696,1,0,0.103,-0.591,1,0
1030,20120214,0.076,-0.954,1,0,0.096,-0.655,0.94,0,0.089,-0.55,1,0,0.147,-0.272,1,0,0.097,-1.287,1,0,0.086,-0.811,1,0,0.101,-0.616,1,0
1030,20120221,0.112,-0.313,0.613,0.083,0.122,-0.186,0.47,0.119,0.107,-0.273,0.673,0.042,0.158,-0.203,0.714,0,0.1,-1.916,1,0,0.117,-0.248,0.536,0.101,0.12,-0.467,0.982,0
1030,20120228,0.101,-0.355,0.792,0,0.108,-0.325,0.81,0,0.101,-0.285,0.994,0,0.165,-0.133,0.976,0,0.117,-2.974,1,0,0.105,-0.331,0.78,0,0.118,-0.472,1,0
1030,20120306,0.121,0.021,0.262,0.137,0.124,0.023,0.429,0.155,0.11,-0.05,0.446,0.125,0.167,-0.084,0.655,0,0.116,-4.431,1,0,0.123,0.027,0.286,0.137,0.128,-0.406,0.881,0
1030,20120313,0.09,-0.3,0.536,0,0.1,-0.285,0.488,0,0.097,-0.22,0.631,0,0.163,-0.08,0.411,0,0.12,-5.228,1,0,0.095,-0.291,0.583,0,0.114,-0.54,1,0
1030,20120320,0.05,-0.719,1,0,0.069,-0.717,1,0,0.078,-0.459,1,0,0.154,-0.137,1,0,0.116,-5.985,1,0,0.06,-0.718,1,0,0.093,-0.773,1,0
1030,20120327,0.046,-0.711,1,0,0.052,-0.961,1,0,0.052,-0.858,1,0,0.147,-0.187,1,0,0.111,-6.76,1,0,0.049,-0.818,1,0,0.081,-1.072,1,0
1030,20120403,0.033,-0.889,1,0,0.036,-1.193,1,0,0.037,-1.292,1,0,0.14,-0.256,1,0,0.106,-7.382,1,0,0.035,-1.016,1,0,0.07,-1.5,1,0
1030,20120410,0.029,-0.913,1,0,0.023,-1.268,1,0,0.021,-1.529,1,0,0.127,-0.431,1,0,0.101,-10.227,1,0,0.026,-1.067,1,0,0.06,-1.644,1,0
1030,20120417,0.022,-0.992,1,0,0.02,-1.379,1,0,0.017,-1.633,1,0,0.113,-0.54,1,0,0.098,-14.673,1,0,0.021,-1.161,1,0,0.054,-1.798,1,0
1030,20120424,0.032,-0.76,0.768,0,0.038,-0.973,0.768,0,0.025,-1.486,1,0,0.104,-0.537,1,0,0.095,-18.682,1,0,0.035,-0.856,0.768,0,0.059,-1.625,1,0
1030,20120501,0.047,-0.448,0.911,0,0.051,-0.608,0.774,0,0.041,-1.034,1,0,0.104,-0.484,1,0,0.092,-22.341,1,0,0.049,-0.523,0.792,0,0.067,-1.303,1,0